Pine Ridge, SD

1:32 AM MDT on May 30, 2017 (GMT -0600)
Pine Ridge

Weather History for KIEN - January, 2014

Change the Weather History Date:

Wednesday, January 8, 2014

  Actual Average Record
Temperature  
Mean Temperature 31 °F 23 °F  
Max Temperature 36 °F 37 °F 63 °F (2002)
Min Temperature 25 °F 9 °F -2 °F (1999)
Degree Days  
Heating Degree Days 34 42  
Month to date heating degree days 358 337  
Since 1 July heating degree days 3349 3327  
Cooling Degree Days 0 0  
Month to date cooling degree days 0 0  
Year to date cooling degree days 0 0  
Moisture  
Dew Point 24 °F    
Average Humidity 78    
Maximum Humidity 92    
Minimum Humidity 63    
Precipitation  
Precipitation T in 0.01 in 0.07 in (2011)
Month to date precipitation 0.05 0.07  
Year to date precipitation 0.05 0.07  
Sea Level Pressure  
Sea Level Pressure 30.09 in    
Wind  
Wind Speed 12 mph (South)    
Max Wind Speed 24 mph    
Max Gust Speed 32 mph    
Visibility 10 miles    
Events Snow    
T = Trace of Precipitation, MM = Missing Value Source: NWS Daily Summary

Daily Weather History Graph

Daily Weather History Graph

Search for Another Location

Airport or City:

Trip Planner

Search our weather history database for the weather conditions in past years. The results will help you decide how hot, cold, wet, or windy it might be!

Date:

Astronomy

Jan. 08, 2014 Rise Set
Actual Time 7:20 AM MST 4:32 PM MST
Civil Twilight 6:49 AM MST 5:04 PM MST
Nautical Twilight 6:13 AM MST 5:40 PM MST
Astronomical Twilight 5:39 AM MST 6:14 PM MST
Moon 11:31 AM MST (1/8) 12:23 AM MST (1/8)
Length of Visible Light 10h 15m
Length of Day
9h 11m
First Quarter, 56% of the Moon is Illuminated
Jan 8
First Quarter
Jan 15
Full
Jan 23
Last Quarter
Jan 30
New
Feb 6
First Quarter

Hourly Weather History & Observations

Time (MST) Temp. Windchill Dew Point Humidity Pressure Visibility Wind Dir Wind Speed Gust Speed Precip Events Conditions
12:49 AM 24.8 °F 17.9 °F 23.0 °F 93% 30.04 in 10.0 mi East 5.8 mph - N/A   Overcast
12:52 AM 25.0 °F 19.3 °F 23.0 °F 92% 30.13 in 10.0 mi East 4.6 mph - N/A   Overcast
1:52 AM 26.1 °F 21.9 °F 23.0 °F 88% 30.14 in 10.0 mi East 3.5 mph - N/A   Overcast
2:52 AM 27.0 °F - 24.1 °F 89% 30.14 in 9.0 mi Calm Calm - 0.00 in Snow Light Snow
3:52 AM 27.0 °F - 25.0 °F 92% 30.14 in 10.0 mi Calm Calm - 0.00 in   Overcast
4:02 AM 28.4 °F - 24.8 °F 86% 30.05 in 10.0 mi Calm Calm - N/A   Overcast
4:52 AM 28.9 °F - 25.0 °F 85% 30.13 in 10.0 mi Calm Calm - N/A   Overcast
5:52 AM 30.0 °F 23.2 °F 26.1 °F 85% 30.12 in 10.0 mi SSW 6.9 mph - N/A   Overcast
6:52 AM 28.0 °F 21.7 °F 24.1 °F 85% 30.15 in 10.0 mi SSW 5.8 mph - N/A   Overcast
7:52 AM 28.9 °F 19.2 °F 25.0 °F 85% 30.16 in 10.0 mi SSW 11.5 mph - N/A   Overcast
8:52 AM 30.0 °F 19.5 °F 25.0 °F 82% 30.17 in 10.0 mi South 13.8 mph - N/A   Overcast
9:52 AM 30.9 °F 19.1 °F 24.1 °F 76% 30.18 in 10.0 mi South 18.4 mph 23.0 mph N/A   Mostly Cloudy
10:52 AM 32.0 °F 20.5 °F 25.0 °F 75% 30.15 in 10.0 mi South 18.4 mph 24.2 mph N/A   Clear
11:52 AM 33.1 °F 22.6 °F 26.1 °F 75% 30.13 in 10.0 mi SSW 16.1 mph 23.0 mph N/A   Overcast
12:52 PM 34.0 °F 23.0 °F 27.0 °F 75% 30.09 in 10.0 mi SSW 18.4 mph - 0.01 in   Clear
1:52 PM 36.0 °F 25.6 °F 27.0 °F 70% 30.08 in 10.0 mi SSW 18.4 mph 26.5 mph N/A   Clear
2:52 PM 35.1 °F 26.9 °F 26.1 °F 70% 30.08 in 10.0 mi SSW 11.5 mph - N/A   Clear
3:52 PM 34.0 °F 28.0 °F 25.0 °F 70% 30.06 in 10.0 mi South 6.9 mph - N/A   Clear
4:52 PM 32.0 °F 23.6 °F 23.0 °F 69% 30.06 in 10.0 mi South 10.4 mph - N/A   Clear
5:52 PM 32.0 °F 21.6 °F 23.0 °F 69% 30.05 in 10.0 mi South 15.0 mph - N/A   Clear
6:52 PM 32.0 °F 20.1 °F 21.9 °F 66% 30.04 in 10.0 mi South 19.6 mph 26.5 mph N/A   Clear
7:52 PM 30.9 °F 17.8 °F 21.0 °F 67% 30.03 in 10.0 mi South 23.0 mph 29.9 mph N/A   Clear
8:52 PM 30.0 °F 17.9 °F 21.0 °F 69% 30.03 in 10.0 mi South 18.4 mph 24.2 mph N/A   Clear
9:52 PM 28.9 °F 16.5 °F 21.0 °F 72% 30.02 in 10.0 mi SSW 18.4 mph 29.9 mph N/A   Clear
10:52 PM 28.0 °F 15.3 °F 21.0 °F 75% 30.00 in 10.0 mi SSW 18.4 mph 24.2 mph N/A   Clear
11:52 PM 28.0 °F 16.1 °F 21.0 °F 75% 29.98 in 10.0 mi South 16.1 mph - N/A   Clear